Iron Mountain, MI

5:05 AM CDT on October 20, 2017 (GMT -0500)
Ford

Weather History for KIMT - October, 2012

Change the Weather History Date:

Thursday, October 4, 2012

  Actual Average Record
Temperature  
Mean Temperature 55 °F -  
Max Temperature 71 °F 60 °F 78 °F (1967)
Min Temperature 39 °F 37 °F 18 °F (1999)
Degree Days  
Heating Degree Days 10    
Growing Degree Days 5 (Base 50)    
Moisture  
Dew Point 41 °F    
Average Humidity 80    
Maximum Humidity 100    
Minimum Humidity 32    
Precipitation  
Precipitation 0.00 in - - ()
Sea Level Pressure  
Sea Level Pressure 29.91 in    
Wind  
Wind Speed 3 mph (SSW)    
Max Wind Speed 23 mph    
Max Gust Speed 28 mph    
Visibility 4 miles    
Events Fog    
Averages and records for this station are not official NWS values.
T = Trace of Precipitation, MM = Missing Value Source: NWS Daily Summary

Daily Weather History Graph

Daily Weather History Graph

Search for Another Location

Airport or City:

Trip Planner

Search our weather history database for the weather conditions in past years. The results will help you decide how hot, cold, wet, or windy it might be!

Date:

Astronomy

Oct. 04, 2012 Rise Set
Actual Time 6:55 AM CDT 6:25 PM CDT
Civil Twilight 6:25 AM CDT 6:55 PM CDT
Nautical Twilight 5:51 AM CDT 7:30 PM CDT
Astronomical Twilight 5:16 AM CDT 8:04 PM CDT
Moon 8:47 PM CDT (10/4) 11:26 AM CDT (10/4)
Length of Visible Light 12h 30m
Length of Day
11h 30m
Waning Gibbous, 82% of the Moon is Illuminated
Oct 4
Waning Gibbous
Oct 8
Last Quarter
Oct 15
New
Oct 21
First Quarter
Oct 29
Full

Hourly Weather History & Observations

Time (CDT) Temp. Windchill Dew Point Humidity Pressure Visibility Wind Dir Wind Speed Gust Speed Precip Events Conditions
12:03 AM 42.8 °F - 39.2 °F 87% 29.98 in 0.5 mi Calm Calm - N/A Fog Fog
12:11 AM 44.6 °F - 42.8 °F 93% 29.98 in 0.2 mi Calm Calm - N/A Fog Fog
12:54 AM 44.1 °F - 43.0 °F 96% 29.99 in 0.2 mi Calm Calm - N/A Fog Fog
1:15 AM 44.6 °F - 42.8 °F 93% 29.97 in 1.0 mi Calm Calm - N/A   Mist
1:20 AM 42.8 °F - 41.0 °F 93% 29.97 in 0.8 mi Calm Calm - N/A   Mist
1:32 AM 42.8 °F - 41.0 °F 93% 29.97 in 0.2 mi Calm Calm - N/A Fog Fog
1:54 AM 42.1 °F - 41.0 °F 96% 29.98 in 0.5 mi Calm Calm - N/A Fog Fog
2:00 AM 42.8 °F - 42.8 °F 100% 29.96 in 0.2 mi Calm Calm - N/A Fog Fog
2:10 AM 42.8 °F - 42.8 °F 100% 29.96 in 0.2 mi Calm Calm - N/A Fog Fog
2:54 AM 43.0 °F - 42.1 °F 97% 29.96 in 0.2 mi Calm Calm - N/A Fog Fog
3:54 AM 41.0 °F - 41.0 °F 100% 29.95 in 0.2 mi Calm Calm - N/A Fog Fog
4:17 AM 41.0 °F - 41.0 °F 100% 29.93 in 0.5 mi Calm Calm - N/A Fog Fog
4:26 AM 39.2 °F - 39.2 °F 100% 29.93 in 0.2 mi Calm Calm - N/A Fog Fog
4:46 AM 39.2 °F - 39.2 °F 100% 29.92 in 0.2 mi Calm Calm - N/A Fog Fog
4:54 AM 39.0 °F - 37.9 °F 96% 29.94 in 0.5 mi Calm Calm - N/A Fog Fog
5:22 AM 39.2 °F - 37.4 °F 93% 29.92 in 0.2 mi Calm Calm - N/A Fog Fog
5:54 AM 39.9 °F - 39.0 °F 97% 29.94 in 0.2 mi Calm Calm - N/A Fog Fog
6:54 AM 39.0 °F - 39.0 °F 100% 29.94 in 0.2 mi Calm Calm - N/A Fog Fog
7:05 AM 39.2 °F - 39.2 °F 100% 29.91 in 0.2 mi Calm Calm - N/A Fog Fog
7:26 AM 39.2 °F - 39.2 °F 100% 29.90 in 0.8 mi Calm Calm - N/A   Overcast
7:46 AM 41.0 °F - 39.2 °F 93% 29.90 in 0.2 mi Calm Calm - N/A Fog Fog
7:54 AM 41.0 °F - 41.0 °F 100% 29.93 in 0.2 mi Calm Calm - N/A Fog Fog
8:54 AM 46.9 °F - 46.0 °F 97% 29.91 in 0.2 mi SE 4.6 mph - N/A Fog Fog
9:54 AM 50.0 °F - 48.9 °F 96% 29.90 in 0.5 mi SSE 6.9 mph - N/A Fog Fog
10:09 AM 51.8 °F - 50.0 °F 94% 29.87 in 2.0 mi SE 8.1 mph - N/A   Mostly Cloudy
10:17 AM 51.8 °F - 50.0 °F 94% 29.87 in 5.0 mi SE 6.9 mph - N/A   Mostly Cloudy
10:25 AM 51.8 °F - 50.0 °F 94% 29.86 in 7.0 mi SE 6.9 mph - N/A   Scattered Clouds
10:54 AM 55.9 °F - 51.1 °F 84% 29.85 in 10.0 mi SE 10.4 mph - N/A   Clear
11:54 AM 64.9 °F - 51.1 °F 61% 29.81 in 10.0 mi SE 11.5 mph - N/A   Clear
12:54 PM 68.0 °F - 51.1 °F 55% 29.81 in 10.0 mi South 17.3 mph 24.2 mph N/A   Mostly Cloudy
1:54 PM 70.0 °F - 46.9 °F 44% 29.78 in 10.0 mi South 23.0 mph 27.6 mph N/A   Clear
2:54 PM 71.1 °F - 42.1 °F 35% 29.77 in 10.0 mi WSW 13.8 mph 25.3 mph N/A   Mostly Cloudy
3:54 PM 68.0 °F - 37.0 °F 32% 29.79 in 10.0 mi WSW 15.0 mph 23.0 mph N/A   Partly Cloudy
4:54 PM 64.0 °F - 37.0 °F 37% 29.82 in 10.0 mi WSW 10.4 mph 27.6 mph N/A   Clear
5:54 PM 59.0 °F - 34.0 °F 39% 29.83 in 10.0 mi SW 15.0 mph 25.3 mph N/A   Clear
6:54 PM 55.0 °F - 34.0 °F 45% 29.86 in 10.0 mi SW 9.2 mph 20.7 mph N/A   Clear
7:54 PM 51.1 °F - 32.0 °F 48% 29.91 in 10.0 mi West 11.5 mph 20.7 mph N/A   Clear
8:54 PM 48.9 °F - 30.9 °F 50% 29.91 in 10.0 mi West 10.4 mph 20.7 mph N/A   Clear
9:54 PM 46.9 °F - 30.0 °F 52% 29.92 in 10.0 mi West 13.8 mph 24.2 mph N/A   Clear
10:54 PM 45.0 °F 39.3 °F 30.0 °F 56% 29.92 in 10.0 mi WSW 11.5 mph 18.4 mph N/A   Clear
11:54 PM 44.1 °F 39.0 °F 28.9 °F 55% 29.91 in 10.0 mi WSW 9.2 mph - N/A   Clear